Simultaneous Nadir Overpasses (SNOs) Predictions

Prediction of SNOs between METOP-C and LANDSAT-8 Satellite Orbit:

Table of predicted SNOs for the next 14.0 days since TLE Epoch: 10/1/2022
Index Date (METOP-C) Time (METOP-C) Lat,Lon (METOP-C) SZA (METOP-C ) Date (LANDSAT-8) Time (LANDSAT-8) Lat,Lon (LANDSAT-8) SZA (LANDSAT-8 ) Distance(km) Time Diff (sec)
1 10/01/2022 16:10:15 81.19, -21.77 86.92 10/01/2022 16:11:08 81.19, -21.64 86.96 2.26 53
2 10/01/2022 17:00:54 -81.21, 146.25 92.99 10/01/2022 17:00:34 -81.21, 146.29 92.99 0.67 20
3 10/04/2022 11:44:34 81.19, 44.69 88.03 10/04/2022 11:45:22 81.20, 44.84 88.07 2.65 48
4 10/04/2022 12:35:13 -81.22,-147.21 91.87 10/04/2022 12:34:48 -81.22,-147.20 91.88 0.18 25
5 10/07/2022 07:18:52 81.19, 111.10 89.12 10/07/2022 07:19:35 81.19, 111.19 89.15 1.58 43
6 10/07/2022 08:09:31 -81.22, -80.72 90.76 10/07/2022 08:09:01 -81.21, -80.83 90.79 1.99 30
7 10/10/2022 02:53:10 81.20, 177.84 90.25 10/10/2022 02:53:48 81.20, 177.77 90.25 1.31 38
8 10/10/2022 03:43:50 -81.22, -14.29 89.67 10/10/2022 03:43:14 -81.22, -14.23 89.68 1.07 36
9 10/12/2022 22:27:29 81.20,-115.86 91.31 10/12/2022 22:28:01 81.20,-115.79 91.33 1.09 32



Historial Predications of SNOs between METOP-C and LANDSAT-8
